When you browse on this site, cookies collect data to enhance your experience and personalize the content and advertising you see.
Visit our Privacy Policy to learn more. By continuing to use the site, you agree to this use of cookies and data.
  • In Portugal
  • List of Countries
  • For 7 days
  • Water Temperature
  • Satellite Maps
  • Weather Map
  • Weather Widgets
  • user-avatar
    Login

    Hourly Weather Silistra

    Today, 17 November, Saturday

    Time Temperature Precipitation Wind Pressure Humidity
    00:00 -1°C° 0.1 mm 5 mps 768 mmHg 78%
    01:00 -1°C° 0.1 mm 5 mps 768 mmHg 79%
    02:00 -1°C° 0.1 mm 5 mps 768 mmHg 80%
    03:00 -1°C° 0.1 mm 5 mps 768 mmHg 81%
    04:00 -1°C° 0.1 mm 5 mps 768 mmHg 82%
    05:00 -1°C° 0.1 mm 5 mps 768 mmHg 83%
    06:00 -1°C° 0.2 mm 5 mps 768 mmHg 83%
    07:00 -2°C° 0.2 mm 6 mps 768 mmHg 84%
    08:00 -2°C° 0.2 mm 6 mps 769 mmHg 84%
    09:00 -2°C° 0.4 mm 6 mps 769 mmHg 84%
    10:00 -2°C° 0.4 mm 6 mps 769 mmHg 83%
    11:00 -1°C° 0.4 mm 6 mps 769 mmHg 82%
    12:00 -1°C° 0.2 mm 6 mps 769 mmHg 81%
    13:00 -1°C° 0.2 mm 6 mps 768 mmHg 80%
    14:00 +1°C° 0.2 mm 6 mps 768 mmHg 79%
    15:00 +1°C° 0.2 mm 5 mps 768 mmHg 80%
    16:00 +1°C° 0.2 mm 5 mps 768 mmHg 80%
    17:00 +1°C° 0.2 mm 5 mps 768 mmHg 81%
    18:00 -1°C° 0.1 mm 6 mps 768 mmHg 80%
    19:00 -1°C° 0.1 mm 6 mps 768 mmHg 80%
    20:00 -1°C° 0.1 mm 6 mps 768 mmHg 80%
    21:00 0°C° 0 mm 5 mps 768 mmHg 80%
    22:00 0°C° 0 mm 5 mps 768 mmHg 81%
    23:00 0°C° 0 mm 4 mps 768 mmHg 82%

    Tomorrow, 18 November, Sunday

    Time Temperature Precipitation Wind Pressure Humidity
    00:00 0°C° 0 mm 5 mps 768 mmHg 82%
    01:00 -1°C° 0 mm 5 mps 768 mmHg 82%
    02:00 -1°C° 0 mm 5 mps 768 mmHg 82%
    03:00 -1°C° 0 mm 4 mps 767 mmHg 83%
    04:00 -1°C° 0 mm 4 mps 767 mmHg 84%
    05:00 -1°C° 0 mm 4 mps 767 mmHg 85%
    06:00 -2°C° 0 mm 4 mps 766 mmHg 85%
    07:00 -1°C° 0 mm 3 mps 766 mmHg 85%
    08:00 -1°C° 0 mm 3 mps 766 mmHg 86%
    09:00 0°C° 0 mm 3 mps 766 mmHg 82%
    10:00 +1°C° 0 mm 3 mps 766 mmHg 78%
    11:00 +2°C° 0 mm 3 mps 766 mmHg 74%
    12:00 +4°C° 0 mm 2 mps 765 mmHg 71%
    13:00 +5°C° 0 mm 2 mps 764 mmHg 69%
    14:00 +5°C° 0 mm 2 mps 764 mmHg 66%
    15:00 +5°C° 0 mm 2 mps 763 mmHg 69%
    16:00 +4°C° 0 mm 2 mps 763 mmHg 71%
    17:00 +4°C° 0 mm 1 mps 762 mmHg 74%
    18:00 +3°C° 0 mm 2 mps 762 mmHg 75%
    19:00 +3°C° 0 mm 2 mps 762 mmHg 76%
    20:00 +3°C° 0 mm 2 mps 761 mmHg 77%
    21:00 +3°C° 0 mm 2 mps 761 mmHg 79%
    22:00 +1°C° 0 mm 3 mps 760 mmHg 80%
    23:00 +1°C° 0 mm 3 mps 760 mmHg 81%

    Day after tomorrow, 19 November, Monday

    Time Temperature Precipitation Wind Pressure Humidity
    00:00 +2°C° 0.1 mm 3 mps 760 mmHg 82%
    01:00 +2°C° 0.1 mm 3 mps 759 mmHg 82%
    02:00 +2°C° 0.1 mm 3 mps 759 mmHg 83%
    03:00 +1°C° 0.5 mm 4 mps 758 mmHg 84%
    04:00 +1°C° 0.5 mm 4 mps 758 mmHg 84%
    05:00 +1°C° 0.5 mm 5 mps 758 mmHg 85%
    06:00 +1°C° 0.6 mm 5 mps 758 mmHg 85%
    07:00 +1°C° 0.6 mm 5 mps 758 mmHg 85%
    08:00 +1°C° 0.6 mm 5 mps 757 mmHg 85%
    09:00 +2°C° 0.4 mm 5 mps 757 mmHg 85%
    10:00 +3°C° 0.4 mm 5 mps 757 mmHg 84%
    11:00 +3°C° 0.4 mm 5 mps 757 mmHg 83%
    12:00 +3°C° 0.3 mm 5 mps 757 mmHg 83%
    13:00 +3°C° 0.3 mm 5 mps 756 mmHg 84%
    14:00 +5°C° 0.3 mm 5 mps 756 mmHg 84%
    15:00 +3°C° 0.2 mm 5 mps 756 mmHg 85%
    16:00 +4°C° 0.2 mm 4 mps 756 mmHg 86%
    17:00 +4°C° 0.2 mm 4 mps 757 mmHg 88%
    18:00 +4°C° 0.2 mm 4 mps 757 mmHg 88%
    19:00 +4°C° 0.2 mm 4 mps 757 mmHg 89%
    20:00 +4°C° 0.2 mm 3 mps 758 mmHg 90%
    21:00 +4°C° 0.1 mm 3 mps 758 mmHg 90%
    22:00 +4°C° 0.1 mm 3 mps 758 mmHg 90%
    23:00 +4°C° 0.1 mm 3 mps 759 mmHg 90%

    20 November, Tuesday

    Time Temperature Precipitation Wind Pressure Humidity
    00:00 +4°C° 0.1 mm 3 mps 759 mmHg 90%
    01:00 +5°C° 0.1 mm 2 mps 759 mmHg 90%
    02:00 +5°C° 0.1 mm 2 mps 759 mmHg 90%
    03:00 +5°C° 0 mm 2 mps 759 mmHg 91%
    04:00 +5°C° 0 mm 2 mps 759 mmHg 91%
    05:00 +4°C° 0 mm 3 mps 759 mmHg 92%
    06:00 +4°C° 0 mm 3 mps 759 mmHg 92%
    07:00 +5°C° 0 mm 3 mps 760 mmHg 92%
    08:00 +5°C° 0 mm 4 mps 760 mmHg 92%
    09:00 +7°C° 0 mm 4 mps 759 mmHg 88%
    10:00 +8°C° 0 mm 5 mps 759 mmHg 84%
    11:00 +10°C° 0 mm 6 mps 759 mmHg 80%
    12:00 +10°C° 0 mm 6 mps 759 mmHg 80%
    13:00 +10°C° 0 mm 6 mps 758 mmHg 80%
    14:00 +11°C° 0 mm 6 mps 758 mmHg 80%
    15:00 +11°C° 0.1 mm 6 mps 757 mmHg 83%
    16:00 +11°C° 0.1 mm 6 mps 757 mmHg 86%
    17:00 +11°C° 0.1 mm 6 mps 756 mmHg 88%
    18:00 +11°C° 0.1 mm 6 mps 756 mmHg 89%
    19:00 +11°C° 0.1 mm 6 mps 756 mmHg 90%
    20:00 +12°C° 0.1 mm 7 mps 755 mmHg 91%
    21:00 +13°C° 0.3 mm 6 mps 755 mmHg 89%
    22:00 +14°C° 0.3 mm 6 mps 754 mmHg 88%
    23:00 +14°C° 0.3 mm 6 mps 754 mmHg 87%

    21 November, Wednesday

    Time Temperature Precipitation Wind Pressure Humidity
    00:00 +14°C° 0.5 mm 6 mps 753 mmHg 86%
    01:00 +14°C° 0.5 mm 6 mps 753 mmHg 86%
    02:00 +15°C° 0.5 mm 6 mps 752 mmHg 85%
    03:00 +15°C° 0.3 mm 6 mps 752 mmHg 84%
    04:00 +15°C° 0.3 mm 7 mps 751 mmHg 84%
    05:00 +15°C° 0.3 mm 7 mps 751 mmHg 83%
    06:00 +15°C° 0 mm 6 mps 751 mmHg 84%
    07:00 +15°C° 0 mm 5 mps 751 mmHg 85%
    08:00 +14°C° 0 mm 4 mps 751 mmHg 86%
    09:00 +15°C° 0.1 mm 4 mps 751 mmHg 80%
    10:00 +18°C° 0.1 mm 4 mps 751 mmHg 74%
    11:00 +19°C° 0.1 mm 4 mps 751 mmHg 68%
    12:00 +19°C° 0 mm 4 mps 751 mmHg 65%
    13:00 +19°C° 0 mm 4 mps 751 mmHg 62%
    14:00 +19°C° 0 mm 4 mps 751 mmHg 59%
    15:00 +18°C° 0 mm 4 mps 751 mmHg 64%
    16:00 +17°C° 0 mm 4 mps 751 mmHg 69%
    17:00 +15°C° 0 mm 4 mps 752 mmHg 74%
    18:00 +14°C° 0 mm 4 mps 752 mmHg 78%
    19:00 +13°C° 0 mm 4 mps 753 mmHg 82%
    20:00 +12°C° 0 mm 4 mps 753 mmHg 86%
    21:00 +12°C° 0 mm 4 mps 754 mmHg 87%
    22:00 +11°C° 0 mm 3 mps 754 mmHg 88%
    23:00 +11°C° 0 mm 3 mps 755 mmHg 89%

    22 November, Thursday

    Time Temperature Precipitation Wind Pressure Humidity
    00:00 +10°C° 0 mm 3 mps 755 mmHg 89%
    01:00 +10°C° 0 mm 3 mps 755 mmHg 88%
    02:00 +10°C° 0 mm 2 mps 756 mmHg 88%
    03:00 +9°C° 0 mm 2 mps 756 mmHg 88%
    04:00 +9°C° 0 mm 2 mps 756 mmHg 87%
    05:00 +9°C° 0 mm 2 mps 757 mmHg 86%
    06:00 +9°C° 0 mm 2 mps 757 mmHg 86%
    07:00 +9°C° 0 mm 2 mps 758 mmHg 86%
    08:00 +8°C° 0 mm 2 mps 758 mmHg 86%
    09:00 +9°C° 0 mm 2 mps 759 mmHg 82%
    10:00 +10°C° 0 mm 2 mps 759 mmHg 78%
    11:00 +11°C° 0 mm 3 mps 759 mmHg 74%
    12:00 +11°C° 0 mm 3 mps 759 mmHg 70%
    13:00 +12°C° 0 mm 3 mps 759 mmHg 67%
    14:00 +12°C° 0 mm 3 mps 759 mmHg 63%
    15:00 +12°C° 0 mm 2 mps 759 mmHg 66%
    16:00 +10°C° 0 mm 2 mps 759 mmHg 69%
    17:00 +10°C° 0 mm 2 mps 760 mmHg 73%
    18:00 +9°C° 0 mm 2 mps 760 mmHg 75%
    19:00 +8°C° 0 mm 2 mps 761 mmHg 78%
    20:00 +8°C° 0 mm 3 mps 761 mmHg 80%
    21:00 +7°C° 0 mm 3 mps 761 mmHg 82%
    22:00 +7°C° 0 mm 3 mps 762 mmHg 83%
    23:00 +5°C° 0 mm 3 mps 762 mmHg 85%
    Show more